Content
SEND FEEDBACK

Daily
Averages
Monthly
Summary
United States of America

SIMPSON, LOUISIANA


Home > North America > United States > Louisiana
Elevation: 300 feet     Latitude: 31 16N     Longitude: 093 01W

WEATHER
 
SELECT A DAY
Number of Records: 91,243;   Date Range: 3/3/05 - 5/2/13
 
SHARE

PRINT THIS DATA

[ ← Previous Day ]
WEATHER ALMANAC - JANUARY 24, 2013
[ Next Day → ]
[ °C ]   °F
Weather ElementAverageHighLow
Temperature62.5 °F71.1 °F (3:53 pm)55.4 °F (7:16 am)
Dewpoint57.4 °F61 °F (1:53 pm)53.6 °F (1:23 am)
Humidity84 %96 % (7:53 am)66 % (3:53 pm)
Barometer30.24 in30.30 in (8:53 am)30.17 in (3:53 pm)
Wind Speed6.5 mph11.5 mph (2:12 pm)
Wind Gust17.3 mph (8:53 pm)
Weather ElementAverage
Visibility9.2 mi
Wind DirectionSSW (192.6 °)

Weather ElementTotal
Precipitation---
Heating Degree Days1.8 (Base 65)
Growing Degree Days13.3 (Base 50)
Averaged from 35 records on January 24, 2013
WEATHER CONDITIONS BREAKOUT
WIND DIRECTION BREAKOUT
WEATHER BY HOUR - JANUARY 24, 2013
[ °C ]   °F
Local TimeTemperatureDewpointHumidityBarometerVisibilityWind DirectionWind SpeedGust SpeedPrecipitationEventsConditions
1:23 AM57.2 °F53.6 °F88 %30.26 in10.0 miSSW (200°)8.1 mphMostly Cloudy
1:45 AM57.2 °F53.6 °F88 %30.25 in10.0 miSouth (190°)8.1 mphScattered Clouds
1:53 AM57.9 °F54.0 °F87 %30.25 in10.0 miSSW (200°)6.9 mphPartly Cloudy
2:53 AM57.0 °F54.0 °F89 %30.24 in10.0 miSSW (210°)8.1 mphClear
3:18 AM57.2 °F53.6 °F88 %30.25 in10.0 miSSW (210°)4.6 mphMostly Cloudy
3:53 AM57.9 °F54.0 °F87 %30.24 in10.0 miSSW (210°)6.9 mphMostly Cloudy
4:53 AM57.9 °F55.0 °F90 %30.26 in10.0 miCalmOvercast
5:51 AM57.2 °F55.4 °F94 %30.26 in10.0 miSouth (190°)5.8 mphOvercast
5:53 AM57.9 °F55.0 °F90 %30.27 in10.0 miSouth (190°)4.6 mphOvercast
6:31 AM57.2 °F53.6 °F88 %30.27 in8.0 miSSE (160°)3.5 mphMostly Cloudy
6:53 AM55.9 °F54.0 °F93 %30.27 in6.0 miSouth (170°)3.5 mphMostly Cloudy
7:16 AM55.4 °F53.6 °F94 %30.28 in4.0 miSouth (180°)4.6 mphMostly Cloudy
7:28 AM55.4 °F53.6 °F94 %30.27 in4.0 miSouth (190°)3.5 mphOvercast
7:53 AM57.0 °F55.9 °F96 %30.28 in4.0 miCalmOvercast
8:53 AM59.0 °F57.0 °F93 %30.30 in7.0 miSSW (200°)4.6 mphOvercast
9:53 AM62.1 °F57.9 °F86 %30.30 in8.0 miSW (220°)6.9 mphOvercast
10:53 AM64.0 °F60.1 °F87 %30.30 in10.0 miWSW (250°)8.1 mphOvercast
11:07 AM64.4 °F60.8 °F88 %30.30 in10.0 miSSW (210°)6.9 mphOvercast
11:41 AM66.2 °F60.8 °F83 %30.28 in10.0 miWest (270°)6.9 mphOvercast
11:53 AM66.0 °F60.1 °F81 %30.28 in10.0 miWest (270°)5.8 mphOvercast
12:53 PM68.0 °F60.1 °F76 %30.23 in10.0 miSW (220°)10.4 mphOvercast
1:53 PM70.0 °F61.0 °F73 %30.19 in10.0 miSW (220°)10.4 mphMostly Cloudy
2:12 PM69.8 °F60.8 °F73 %30.19 in10.0 miSW (220°)11.5 mphMostly Cloudy
2:53 PM70.0 °F60.1 °F71 %30.18 in10.0 miWSW (240°)9.2 mphScattered Clouds
3:05 PM69.8 °F60.8 °F73 %30.19 in10.0 miSW (220°)4.6 mphMostly Cloudy
3:12 PM69.8 °F60.8 °F73 %30.19 in10.0 miWSW (240°)4.6 mphMostly Cloudy
3:53 PM71.1 °F59.0 °F66 %30.17 in10.0 miSW (220°)6.9 mphMostly Cloudy
4:53 PM70.0 °F60.1 °F71 %30.18 in10.0 miSSW (200°)8.1 mphOvercast
5:53 PM68.0 °F60.1 °F76 %30.19 in10.0 miSouth (170°)4.6 mphOvercast
6:53 PM66.0 °F60.1 °F81 %30.20 in10.0 miSouth (170°)8.1 mphPartly Cloudy
7:53 PM64.9 °F59.0 °F81 %30.19 in10.0 miSouth (180°)9.2 mphPartly Cloudy
8:53 PM63.0 °F59.0 °F87 %30.19 in10.0 miSouth (180°)8.1 mph17.3 mphMostly Cloudy
9:53 PM63.0 °F57.9 °F84 %30.19 in10.0 miSouth (170°)8.1 mphOvercast
10:53 PM63.0 °F57.9 °F84 %30.19 in10.0 miSouth (190°)8.1 mphOvercast
11:53 PM62.1 °F57.9 °F86 %30.18 in10.0 miSouth (180°)9.2 mphMostly Cloudy
Hourly data recorded from KDNK, located miles away from Simpson, Louisiana







STORIES FROM OUR PARTNERS